Location: Newark
(48.6461°N, 4.3644°W)
Time: 02:37:13
(UTC+00:00)

deb Explorer IX - Pass Details

Date: 02 February 2020
Orbit: 549 x 1099 km, 38.8° (Epoch: 25 February)

Event Time Altitude Azimuth Distance (km) Brightness Sun altitude
Rises 18:09:35 0° 209° (SSW) 3,256 ? -9.1°
Reaches altitude 10° 18:12:43 10° 191° (S) 2,440 ? -9.6°
Maximum altitude 18:16:30 18° 150° (SSE) 2,067 ? -10.2°
Drops below altitude 10° 18:20:36 10° 111° (ESE) 2,695 ? -10.8°
Enters shadow 18:21:05 - 107° (ESE) 2,820 ? -10.9°
